Location: Birkenwerder
(52.6919°N, 13.2774°E)
Time: 23:11:21
(UTC+00:00)

Cosmos 1315 Rocket - Pass Details

Date: 07 June 2020
Orbit: 529 x 569 km, 81.2° (Epoch: 05 July)

Event Time Altitude Azimuth Distance (km) Brightness Sun altitude
Rises 00:35:02 0° 348° (NNW) 2,687 7.4 -12.1°
Reaches altitude 10° 00:37:13 10° 352° (N) 1,793 6.4 -11.9°
Maximum altitude 00:41:07 64° 74° (ENE) 598 3.1 -11.7°
Drops below altitude 10° 00:45:02 10° 157° (SSE) 1,791 5.0 -11.5°
Enters shadow 00:45:25 - 158° (SSE) 1,948 5.2 -11.5°
